TimeCST,TemperatureF,Dew PointF,Humidity,Sea Level PressureIn,VisibilityMPH,Wind Direction,Wind SpeedMPH,Gust SpeedMPH,PrecipitationIn,Events,Conditions,WindDirDegrees,DateUTC
12:15 AM,5.0,3.2,92,30.34,10.0,Calm,Calm,-,N/A,,Scattered Clouds,0,2013-01-18 06:15:00
12:35 AM,6.8,3.2,85,30.34,10.0,Calm,Calm,-,N/A,,Scattered Clouds,0,2013-01-18 06:35:00
12:55 AM,8.6,5.0,85,30.34,10.0,Calm,Calm,-,N/A,,Scattered Clouds,0,2013-01-18 06:55:00
1:15 AM,8.6,5.0,85,30.34,10.0,Calm,Calm,-,N/A,,Mostly Cloudy,0,2013-01-18 07:15:00
1:35 AM,10.4,6.8,85,30.34,10.0,Calm,Calm,-,N/A,,Overcast,0,2013-01-18 07:35:00
2:15 AM,12.2,8.6,85,30.32,10.0,Calm,Calm,-,N/A,,Overcast,0,2013-01-18 08:15:00
2:35 AM,14.0,10.4,86,30.32,10.0,Calm,Calm,-,N/A,,Overcast,0,2013-01-18 08:35:00
2:55 AM,14.0,10.4,86,30.31,10.0,Calm,Calm,-,N/A,,Overcast,0,2013-01-18 08:55:00
3:15 AM,14.0,8.6,79,30.31,10.0,Calm,Calm,-,N/A,,Overcast,0,2013-01-18 09:15:00
3:35 AM,14.0,8.6,79,30.30,10.0,SE,3.5,-,N/A,,Overcast,130,2013-01-18 09:35:00
3:55 AM,14.0,10.4,86,30.27,5.0,ESE,4.6,-,N/A,Snow,Light Snow,120,2013-01-18 09:55:00
4:15 AM,14.0,10.4,86,30.25,2.5,ESE,4.6,-,N/A,Snow,Light Snow,120,2013-01-18 10:15:00
4:35 AM,15.8,10.4,79,30.24,1.8,ESE,3.5,-,N/A,Snow,Light Snow,110,2013-01-18 10:35:00
5:15 AM,15.8,12.2,86,30.21,2.5,SE,4.6,-,N/A,Snow,Light Snow,130,2013-01-18 11:15:00
5:35 AM,15.8,12.2,86,30.20,5.0,SE,4.6,-,N/A,Snow,Light Snow,130,2013-01-18 11:35:00
6:15 AM,17.6,12.2,79,30.16,10.0,SE,5.8,-,N/A,,Overcast,130,2013-01-18 12:15:00
6:35 AM,17.6,14.0,86,30.15,10.0,SE,6.9,-,N/A,,Overcast,140,2013-01-18 12:35:00
6:55 AM,17.6,14.0,86,30.13,10.0,SE,6.9,-,N/A,,Overcast,130,2013-01-18 12:55:00
7:15 AM,17.6,14.0,86,30.10,10.0,SE,3.5,-,N/A,,Overcast,140,2013-01-18 13:15:00
7:35 AM,19.4,14.0,80,30.08,10.0,SE,4.6,-,N/A,,Overcast,140,2013-01-18 13:35:00
8:15 AM,19.4,15.8,86,30.04,10.0,SE,3.5,-,N/A,,Overcast,130,2013-01-18 14:15:00
8:35 AM,21.2,17.6,86,30.02,10.0,SE,3.5,-,N/A,,Mostly Cloudy,140,2013-01-18 14:35:00
8:55 AM,23.0,17.6,80,30.00,10.0,SSE,4.6,-,N/A,,Clear,150,2013-01-18 14:55:00
9:15 AM,26.6,19.4,74,29.98,10.0,SSE,5.8,-,N/A,,Clear,160,2013-01-18 15:15:00
9:35 AM,28.4,21.2,74,29.98,10.0,SSE,4.6,-,N/A,,Clear,160,2013-01-18 15:35:00
9:55 AM,30.2,21.2,69,29.98,10.0,South,3.5,-,N/A,,Clear,190,2013-01-18 15:55:00
10:15 AM,32.0,23.0,69,29.96,10.0,SSW,4.6,-,N/A,,Clear,200,2013-01-18 16:15:00
10:35 AM,32.0,23.0,69,29.93,10.0,South,8.1,-,N/A,,Clear,190,2013-01-18 16:35:00
10:55 AM,35.6,24.8,65,29.91,10.0,South,10.4,16.1,N/A,,Clear,190,2013-01-18 16:55:00
11:15 AM,35.6,26.6,70,29.89,10.0,SSW,12.7,23.0,N/A,,Clear,210,2013-01-18 17:15:00
11:35 AM,35.6,26.6,70,29.86,10.0,SW,10.4,23.0,N/A,,Clear,220,2013-01-18 17:35:00
11:55 AM,39.2,26.6,61,29.85,10.0,SSW,16.1,23.0,N/A,,Clear,210,2013-01-18 17:55:00
12:15 PM,41.0,28.4,61,29.84,10.0,SSW,16.1,23.0,N/A,,Clear,210,2013-01-18 18:15:00
12:35 PM,41.0,28.4,61,29.82,10.0,SW,12.7,24.2,N/A,,Clear,220,2013-01-18 18:35:00
12:55 PM,41.0,28.4,61,29.80,10.0,SW,16.1,25.3,N/A,,Clear,220,2013-01-18 18:55:00
1:15 PM,42.8,28.4,57,29.78,10.0,SSW,11.5,20.7,N/A,,Clear,210,2013-01-18 19:15:00
1:35 PM,42.8,28.4,57,29.78,10.0,SW,19.6,25.3,N/A,,Clear,220,2013-01-18 19:35:00
1:55 PM,42.8,28.4,57,29.76,10.0,WSW,15.0,25.3,N/A,,Clear,240,2013-01-18 19:55:00
2:15 PM,42.8,30.2,61,29.76,10.0,SW,12.7,25.3,N/A,,Clear,230,2013-01-18 20:15:00
2:35 PM,44.6,30.2,57,29.75,10.0,SW,13.8,18.4,N/A,,Clear,230,2013-01-18 20:35:00
2:55 PM,44.6,30.2,57,29.76,10.0,SW,9.2,16.1,N/A,,Clear,230,2013-01-18 20:55:00
3:15 PM,44.6,30.2,57,29.75,10.0,SW,10.4,23.0,N/A,,Clear,230,2013-01-18 21:15:00
3:35 PM,44.6,30.2,57,29.74,10.0,SW,8.1,-,N/A,,Clear,220,2013-01-18 21:35:00
3:55 PM,44.6,30.2,57,29.75,10.0,SW,5.8,-,N/A,,Clear,220,2013-01-18 21:55:00
4:15 PM,44.6,30.2,57,29.74,10.0,SW,4.6,-,N/A,,Clear,220,2013-01-18 22:15:00
4:35 PM,42.8,30.2,61,29.74,10.0,SW,5.8,-,N/A,,Clear,230,2013-01-18 22:35:00
5:15 PM,42.8,32.0,66,29.74,10.0,SSW,5.8,-,N/A,,Clear,210,2013-01-18 23:15:00
5:35 PM,41.0,32.0,70,29.75,10.0,SW,3.5,-,N/A,,Clear,220,2013-01-18 23:35:00
5:55 PM,41.0,32.0,70,29.75,10.0,SW,4.6,-,N/A,,Clear,230,2013-01-18 23:55:00
6:15 PM,41.0,32.0,70,29.75,10.0,SW,3.5,-,N/A,,Clear,230,2013-01-19 00:15:00
6:35 PM,39.2,32.0,75,29.75,10.0,SSW,4.6,-,N/A,,Clear,200,2013-01-19 00:35:00
6:55 PM,37.4,32.0,81,29.75,10.0,SSW,4.6,-,N/A,,Clear,200,2013-01-19 00:55:00
7:15 PM,37.4,32.0,81,29.75,10.0,SW,4.6,-,N/A,,Clear,220,2013-01-19 01:15:00
7:35 PM,37.4,32.0,81,29.75,10.0,SW,5.8,-,N/A,,Clear,230,2013-01-19 01:35:00
7:55 PM,39.2,32.0,75,29.75,10.0,SW,6.9,-,N/A,,Clear,230,2013-01-19 01:55:00
8:15 PM,37.4,32.0,81,29.75,10.0,WSW,5.8,-,N/A,,Clear,240,2013-01-19 02:15:00
8:35 PM,37.4,32.0,81,29.76,10.0,WSW,4.6,-,N/A,,Clear,240,2013-01-19 02:35:00
8:55 PM,37.4,32.0,81,29.76,10.0,WSW,4.6,-,N/A,,Clear,250,2013-01-19 02:55:00
9:15 PM,37.4,32.0,81,29.77,10.0,WSW,5.8,-,N/A,,Clear,250,2013-01-19 03:15:00
9:35 PM,37.4,32.0,81,29.77,10.0,West,8.1,-,N/A,,Clear,260,2013-01-19 03:35:00
9:55 PM,35.6,30.2,81,29.77,10.0,West,6.9,-,N/A,,Clear,260,2013-01-19 03:55:00
10:35 PM,35.6,30.2,81,29.78,10.0,WSW,4.6,-,N/A,,Scattered Clouds,250,2013-01-19 04:35:00
10:55 PM,33.8,30.2,87,29.78,10.0,Calm,Calm,-,N/A,,Clear,0,2013-01-19 04:55:00
11:15 PM,32.0,30.2,93,29.78,10.0,SSW,4.6,-,N/A,,Clear,200,2013-01-19 05:15:00
11:35 PM,33.8,30.2,87,29.78,10.0,WSW,4.6,-,N/A,,Clear,240,2013-01-19 05:35:00
11:55 PM,32.0,28.4,87,29.77,10.0,West,3.5,-,N/A,,Clear,270,2013-01-19 05:55:00